Date String (YYYY-MM-DD hh:mm:ss) UTC,Instrument flags,Ambient pressure (hPa),Sample flow (lpm),Bypass flow (lpm),Sample temperature (°C),Ambient temperature (°C),ASC tube jacket temperature (°C),LED temperature (°C),Box temperature (°C),Sample RH (%),Span deviation,Mass concentration (μg/m³),Mass concentration (μg/m³),Mass concentration (μg/m³)
DateTimeUTC,F1_M11,P_M11,Q1_M11,Q2_M11,T1_M11,T2_M11,T3_M11,T4_M11,T5_M11,U1_M11,ZSPAN_M11,X0_M11,X2_M11,X1_M11
2022-06-25 09:00:00,,0828.0,5.00,0.00,29.9,28.9,00.0,38.7,31.8,18.1,0000.0,0005.79,0003.04,0001.79
2022-06-25 09:01:00,,0828.0,5.00,0.00,29.9,28.9,00.0,38.7,31.8,18.0,0000.0,0006.17,0003.10,0001.80
2022-06-25 09:02:00,,0828.0,5.00,0.00,29.9,28.9,00.0,38.7,31.8,17.6,0000.0,0006.13,0003.08,0001.81
2022-06-25 09:03:00,,0828.1,5.00,0.00,29.9,28.9,00.0,38.7,31.8,17.5,0000.0,0006.40,0003.09,0001.79
2022-06-25 09:04:00,,0828.1,5.00,0.00,29.9,28.9,00.0,38.7,31.8,17.4,0000.0,0006.75,0003.13,0001.79
2022-06-25 09:05:00,,0828.1,5.00,0.00,30.0,28.9,00.0,38.7,31.9,17.5,0000.0,0006.92,0003.13,0001.79
2022-06-25 09:06:00,,0828.1,5.01,0.00,30.0,28.9,00.0,38.8,31.9,17.4,0000.0,0006.96,0003.09,0001.78
2022-06-25 09:07:00,,0828.1,4.99,0.00,30.0,29.0,00.0,38.8,31.9,17.4,0000.0,0006.84,0003.07,0001.78
2022-06-25 09:08:00,,0828.1,5.00,0.00,30.0,29.0,00.0,38.8,31.9,17.3,0000.0,0006.95,0003.10,0001.76
2022-06-25 09:09:00,,0828.1,4.99,0.00,30.0,29.0,00.0,38.8,31.9,17.4,0000.0,0007.54,0003.08,0001.73
2022-06-25 09:10:00,,0828.2,5.00,0.00,30.0,29.0,00.0,38.8,31.9,17.5,0000.0,0007.92,0003.04,0001.70
2022-06-25 09:11:00,,0828.2,5.00,0.00,30.0,29.0,00.0,38.8,31.9,17.4,0000.0,0008.31,0003.03,0001.68
2022-06-25 09:12:00,,0828.2,5.00,0.00,30.0,29.1,00.0,38.8,31.9,17.3,0000.0,0008.02,0002.93,0001.65
2022-06-25 09:13:00,,0828.2,5.01,0.00,30.1,29.1,00.0,38.8,31.9,17.2,0000.0,0007.96,0002.89,0001.62
2022-06-25 09:14:00,,0828.2,4.99,0.00,30.1,29.1,00.0,38.8,31.9,17.3,0000.0,0007.78,0002.86,0001.60
2022-06-25 09:15:00,,0828.2,4.99,0.00,30.1,29.1,00.0,38.9,32.0,17.4,0000.0,0007.61,0002.81,0001.58
2022-06-25 09:16:00,,0828.2,5.00,0.00,30.1,29.1,00.0,38.9,32.0,17.4,0000.0,0007.39,0002.72,0001.56
2022-06-25 09:17:00,,0828.2,5.01,0.00,30.1,29.1,00.0,38.9,32.0,17.4,0000.0,0007.16,0002.65,0001.54
2022-06-25 09:18:00,,0828.1,4.99,0.00,30.1,29.2,00.0,38.9,32.0,17.2,0000.0,0006.94,0002.56,0001.53
2022-06-25 09:19:00,,0828.2,5.00,0.00,30.1,29.2,00.0,38.9,32.0,17.3,0000.0,0006.73,0002.54,0001.53
2022-06-25 09:20:00,,0828.2,5.01,0.00,30.1,29.2,00.0,38.9,32.0,17.4,0000.0,0006.00,0002.54,0001.54
2022-06-25 09:21:00,,0828.2,5.00,0.00,30.2,29.2,00.0,38.9,32.0,17.4,0000.0,0005.35,0002.56,0001.56
2022-06-25 09:22:00,,0828.2,5.00,0.00,30.2,29.2,00.0,38.9,32.0,17.4,0000.0,0004.48,0002.52,0001.57
2022-06-25 09:23:00,,0828.2,4.99,0.00,30.2,29.2,00.0,39.0,32.0,17.3,0000.0,0004.50,0002.55,0001.58
2022-06-25 09:24:00,,0828.1,5.00,0.00,30.2,29.2,00.0,39.0,32.1,17.2,0000.0,0004.41,0002.53,0001.59
2022-06-25 09:25:00,,0828.1,5.01,0.00,30.2,29.2,00.0,39.0,32.1,17.1,0000.0,0004.56,0002.52,0001.61
2022-06-25 09:26:00,,0828.2,4.99,0.00,30.2,29.3,00.0,39.0,32.1,17.1,0000.0,0005.11,0002.59,0001.61
2022-06-25 09:27:00,,0828.2,5.01,0.00,30.2,29.3,00.0,39.0,32.1,17.0,0000.0,0006.58,0002.61,0001.61
2022-06-25 09:28:00,,0828.3,5.00,0.00,30.2,29.3,00.0,39.0,32.1,16.9,0000.0,0006.81,0002.63,0001.61
2022-06-25 09:29:00,,0828.2,4.99,0.00,30.3,29.3,00.0,39.0,32.1,17.1,0000.0,0006.75,0002.63,0001.61
2022-06-25 09:30:00,,0828.2,5.01,0.00,30.3,29.3,00.0,39.1,32.1,17.1,0000.0,0006.67,0002.58,0001.62
2022-06-25 09:31:00,,0828.2,5.00,0.00,30.3,29.3,00.0,39.1,32.1,17.0,0000.0,0006.57,0002.58,0001.62
2022-06-25 09:32:00,,0828.3,5.00,0.00,30.3,28.9,00.0,39.0,32.0,16.8,0000.0,0006.79,0002.58,0001.61
2022-06-25 09:33:00,,0828.2,5.01,0.00,30.2,28.1,00.0,39.0,31.9,16.8,0000.0,0006.86,0002.60,0001.61
2022-06-25 09:34:00,,0828.2,5.00,0.00,30.1,27.7,00.0,38.9,31.7,16.5,0000.0,0006.82,0002.56,0001.61
2022-06-25 09:35:00,,0828.2,5.00,0.00,30.0,27.7,00.0,38.9,31.6,16.5,0000.0,0006.77,0002.55,0001.60
2022-06-25 09:36:00,,0828.4,5.00,0.00,30.0,27.7,00.0,38.9,31.6,16.3,0000.0,0006.62,0002.55,0001.59
2022-06-25 09:37:00,,0828.3,5.01,0.00,29.9,27.8,00.0,38.8,31.6,16.5,0000.0,0006.21,0002.50,0001.59
2022-06-25 09:38:00,,0828.2,4.99,0.00,29.9,28.0,00.0,38.8,31.6,16.7,0000.0,0005.52,0002.50,0001.59
2022-06-25 09:39:00,,0828.2,5.00,0.00,29.9,28.1,00.0,38.8,31.6,16.5,0000.0,0006.09,0002.55,0001.59
2022-06-25 09:40:00,,0828.2,5.01,0.00,29.9,28.2,00.0,38.8,31.6,16.5,0000.0,0006.33,0002.63,0001.59
2022-06-25 09:41:00,,0828.2,5.00,0.00,29.9,28.3,00.0,38.8,31.6,16.6,0000.0,0006.53,0002.71,0001.58
2022-06-25 09:42:00,,0828.2,5.00,0.00,29.9,28.4,00.0,38.8,31.7,16.6,0000.0,0006.83,0002.76,0001.58
2022-06-25 09:43:00,,0828.2,5.00,0.00,29.9,28.5,00.0,38.8,31.7,16.5,0000.0,0007.08,0002.82,0001.60
2022-06-25 09:44:00,,0828.2,4.99,0.00,29.9,28.5,00.0,38.8,31.7,16.4,0000.0,0007.08,0002.84,0001.61
2022-06-25 09:45:00,,0828.2,5.02,0.00,29.9,28.6,00.0,38.8,31.7,16.2,0000.0,0007.25,0002.87,0001.62
2022-06-25 09:46:00,,0828.3,4.99,0.00,29.9,28.7,00.0,38.8,31.7,16.1,0000.0,0007.59,0002.87,0001.63
2022-06-25 09:47:00,,0828.3,4.99,0.00,29.9,28.7,00.0,38.8,31.7,16.0,0000.0,0007.68,0002.91,0001.63
2022-06-25 09:48:00,,0828.3,5.00,0.00,29.9,28.8,00.0,38.8,31.8,16.0,0000.0,0007.65,0002.88,0001.65
2022-06-25 09:49:00,,0828.4,5.00,0.00,29.9,28.8,00.0,38.8,31.7,16.1,0000.0,0007.30,0002.94,0001.66
2022-06-25 09:50:00,,0828.4,5.01,0.00,29.9,28.8,00.0,38.8,31.8,16.0,0000.0,0006.75,0002.92,0001.66
2022-06-25 09:51:00,,0828.5,5.01,0.00,29.9,28.9,00.0,38.8,31.8,16.4,0000.0,0006.68,0002.87,0001.66
2022-06-25 09:52:00,,0828.5,4.99,0.00,30.0,28.9,00.0,38.8,31.8,16.4,0000.0,0006.50,0002.81,0001.68
2022-06-25 09:53:00,,0828.5,5.00,0.00,30.0,28.9,00.0,38.8,31.8,16.3,0000.0,0006.43,0002.77,0001.69
2022-06-25 09:54:00,,0828.5,5.01,0.00,30.0,28.9,00.0,38.8,31.9,16.5,0000.0,0005.91,0002.73,0001.68
2022-06-25 09:55:00,,0828.4,5.00,0.00,30.0,29.0,00.0,38.8,31.9,16.8,0000.0,0005.89,0002.72,0001.66
2022-06-25 09:56:00,,0828.6,5.00,0.00,30.0,29.0,00.0,38.8,31.9,16.8,0000.0,0005.86,0002.71,0001.66
2022-06-25 09:57:00,,0828.9,5.01,0.00,30.0,29.0,00.0,38.8,31.9,16.8,0000.0,0005.45,0002.69,0001.67
2022-06-25 09:58:00,,0829.0,5.01,0.00,30.1,29.1,00.0,38.8,31.9,16.8,0000.0,0005.36,0002.68,0001.68
2022-06-25 09:59:00,,0828.9,4.98,0.00,30.1,29.1,00.0,38.9,31.9,16.8,0000.0,0005.29,0002.68,0001.69
